Location: Unspecified
(51.0950°N, 12.9690°E)
Time: 16:18:46
(UTC+00:00)

Cosmos 1980 Rocket - Pass Details

Date: 28 October 2021
Orbit: 828 x 851 km, 71.0° (Epoch: 02 December)

Event Time Altitude Azimuth Distance (km) Brightness Sun altitude
Rises 17:37:15 0° 259° (W) 3,404 7.0 -17.5°
Reaches altitude 10° 17:40:17 10° 275° (W) 2,475 5.9 -17.9°
Maximum altitude 17:44:36 22° 324° (NW) 1,797 4.3 -18.6°
Drops below altitude 10° 17:48:57 10° 14° (NNE) 2,490 4.5 -19.3°
Enters shadow 17:51:16 - 27° (NNE) 3,188 5.0 -19.7°
